Regional Weather Roundup
Issued by NWS Goodland, KS

Home | Current Version | Previous Version | Text Only | Print | Product List | Glossary Off
Versions: 1 2 3 4 5 6 7 8 9 10 11 12 13 14 15 16 17 18 19 20 21 22 23 24 25 26 27 28 29 30 31 32 33 34 35 36 37 38 39 40 41 42 43 44 45 46 47 48 49 50

000
ASUS43 KGLD 240759
RWRGLD

GOODLAND FORECAST AREA HOURLY WEATHER ROUNDUP
NATIONAL WEATHER SERVICE GOODLAND KS
200 AM MDT FRI OCT 24 2014

...OFFICIAL OBSERVATIONS...

CITY           SKY/WX    TMP DP  RH WIND       PRES   REMARKS
GOODLAND KS    CLEAR     55  51  86 SW10      30.08S
HILL CITY KS   PTCLDY    58  55  90 SW5       30.02F
IMPERIAL NEB   PTCLDY    49  39  68 W8        30.02S
MCCOOK NEB     PTCLDY    54  51  90 W9        30.01F FOG
AKRON CO       PTCLDY    53  36  52 SW10      30.09S
BURLINGTON CO  CLEAR     53  45  74 SW10      30.10S
LIMON CO       PTCLDY    50  34  54 VRB5      30.16F
$$

...UNOFFICIAL OBSERVATIONS...

CITY           SKY/WX    TMP DP  RH WIND       PRES   REMARKS
SHARON SPRINGS   N/A     54  52  92 W8          N/A
KIT CARSON CO    N/A     45  41  87 CALM        N/A
YUMA CO          N/A     53  38  56 SW10        N/A
$$



USA.gov is the U.S. government's official web portal to all federal, state and local government web resources and services.